Location: G�ndlingen
(48.0142°N, 7.6396°E)
Time: 08:40:22
(UTC+00:00)

Cosmos 2237 Rocket - Pass Details

Date: 05 July 2020
Orbit: 834 x 850 km, 71.0° (Epoch: 05 August)

Event Time Altitude Azimuth Distance (km) Brightness Sun altitude
Exits shadow 22:14:55 21° 198° (SSW) 1,830 3.5 -17.1°
Maximum altitude 22:18:51 77° 115° (ESE) 876 2.1 -17.3°
Drops below altitude 10° 22:24:34 10° 30° (NNE) 2,487 5.2 -17.6°
Sets 22:27:02 0° 29° (NNE) 3,427 6.1 -17.7°
